User: anonymous   Login
Location: Krasnoyarskiy Pitomnik
(51.1333°N, 71.6167°E)
Time: 11:51:39
(UTC+00:00)
Language:

Cosmos 1758 - Orbit

View from above orbital plane
View from above orbital plane
View from above satellite
View from above satellite

Ground track
Ground track

The orbit data is extracted from the following two-line orbital elements,

1 16791U 86046A   22017.92867208  .00001130  00000-0  76133-4 0  9991
2 16791  82.4693 198.0047 0017193 139.2878 220.9638 15.05611366937436
Epoch (UTC): 17 January 2022 22:17:17
Eccentricity: 0.0017193
inclination: 82.4693°
perigee height: 538 km
apogee height: 561 km
right ascension of ascending node: 198.0047°
argument of perigee: 139.2878°
revolutions per day: 15.05611366
mean anomaly at epoch: 220.9638°
orbit number at epoch: 93743

The dashed part of the orbit path shows where the satellite is in the earth's shadow,  

DLR